Weather History for Sanford, ME

Change the Weather History Date:

Thursday, September 5, 2013

  Actual Average Record
Temperature  
Mean Temperature 54 °F -  
Max Temperature 66 °F 73 °F 87 °F (2014)
Min Temperature 42 °F 49 °F 35 °F (2007)
Degree Days  
Heating Degree Days 11    
Growing Degree Days 4 (Base 50)    
Moisture  
Dew Point 49 °F    
Average Humidity 72    
Maximum Humidity 88    
Minimum Humidity 37    
Precipitation  
Precipitation 0.00 in - - ()
Sea Level Pressure  
Sea Level Pressure 29.97 in    
Wind  
Wind Speed 3 mph (North)    
Max Wind Speed 13 mph    
Max Gust Speed -    
Visibility 10 miles    
Events      
Averages and records for this station are not official NWS values.
T = Trace of Precipitation, MM = Missing Value Source: NWS Daily Summary

Daily Weather History Graph

Daily Weather History Graph

Search for Another Location

Airport:

Trip Planner

Search our weather history database for the weather conditions in past years. The results will help you decide how hot, cold, wet, or windy it might be!

Date:

Astronomy

Sep. 05, 2013 Rise Set
Actual Time 6:11 AM EDT 7:10 PM EDT
Civil Twilight 5:42 AM EDT 7:39 PM EDT
Nautical Twilight 5:07 AM EDT 8:14 PM EDT
Astronomical Twilight 4:31 AM EDT 8:50 PM EDT
Moon 6:21 AM EDT (9/5) 6:57 PM EDT (9/5)
Length of Visible Light 13h 57m
Length of Day
12h 59m
New Moon, 0% of the Moon is Illuminated
Sep 5
New Moon
Sep 12
First Quarter
Sep 19
Full
Sep 26
Last Quarter
Oct 4
New

Hourly Weather History & Observations

Time (EDT) Temp. Windchill Dew Point Humidity Pressure Visibility Wind Dir Wind Speed Gust Speed Precip Events Conditions
12:15 AM 57.2 °F - 53.6 °F 88% 29.87 in 10.0 mi Calm Calm - N/A   Scattered Clouds
12:35 AM 59.0 °F - 53.6 °F 82% 29.87 in 10.0 mi Calm Calm - N/A   Overcast
12:55 AM 59.0 °F - 53.6 °F 82% 29.87 in 10.0 mi Calm Calm - N/A   Overcast
1:15 AM 59.0 °F - 53.6 °F 82% 29.87 in 10.0 mi Calm Calm - N/A   Overcast
1:35 AM 59.0 °F - 53.6 °F 82% 29.87 in 10.0 mi Calm Calm - N/A   Overcast
1:55 AM 59.0 °F - 53.6 °F 82% 29.87 in 10.0 mi Calm Calm - N/A   Overcast
2:15 AM 59.0 °F - 53.6 °F 82% 29.87 in 10.0 mi SW 3.5 mph - N/A   Overcast
2:35 AM 59.0 °F - 55.4 °F 88% 29.87 in 10.0 mi Calm Calm - N/A   Mostly Cloudy
2:55 AM 59.0 °F - 53.6 °F 82% 29.87 in 10.0 mi SW 3.5 mph - N/A   Scattered Clouds
3:15 AM 59.0 °F - 55.4 °F 88% 29.87 in 10.0 mi Calm Calm - N/A   Mostly Cloudy
3:35 AM 59.0 °F - 55.4 °F 88% 29.87 in 10.0 mi WSW 3.5 mph - N/A   Overcast
3:55 AM 59.0 °F - 55.4 °F 88% 29.87 in 10.0 mi Calm Calm - N/A   Overcast
4:15 AM 59.0 °F - 55.4 °F 88% 29.86 in 10.0 mi Calm Calm - N/A   Overcast
4:35 AM 60.8 °F - 55.4 °F 82% 29.86 in 10.0 mi Calm Calm - N/A   Overcast
4:55 AM 60.8 °F - 55.4 °F 82% 29.87 in 10.0 mi Calm Calm - N/A   Overcast
5:15 AM 60.8 °F - 55.4 °F 82% 29.88 in 10.0 mi Calm Calm - N/A   Overcast
5:35 AM 60.8 °F - 55.4 °F 82% 29.87 in 10.0 mi Calm Calm - N/A   Overcast
5:55 AM 60.8 °F - 55.4 °F 82% 29.89 in 10.0 mi WNW 3.5 mph - N/A   Overcast
6:15 AM 60.8 °F - 55.4 °F 82% 29.89 in 10.0 mi Calm Calm - N/A   Overcast
6:35 AM 60.8 °F - 57.2 °F 88% 29.89 in 10.0 mi North 5.8 mph - N/A   Overcast
6:55 AM 60.8 °F - 57.2 °F 88% 29.90 in 10.0 mi NNE 6.9 mph - N/A   Overcast
7:15 AM 60.8 °F - 55.4 °F 82% 29.91 in 10.0 mi NNE 6.9 mph - N/A   Overcast
7:35 AM 60.8 °F - 53.6 °F 77% 29.92 in 10.0 mi NNE 11.5 mph - N/A   Overcast
7:55 AM 59.0 °F - 53.6 °F 82% 29.92 in 10.0 mi NNE 9.2 mph - N/A   Overcast
8:15 AM 59.0 °F - 53.6 °F 82% 29.94 in 10.0 mi North 5.8 mph - N/A   Overcast
8:35 AM 59.0 °F - 53.6 °F 82% 29.95 in 10.0 mi NNE 10.4 mph - N/A   Overcast
8:55 AM 57.2 °F - 53.6 °F 88% 29.95 in 10.0 mi NNE 8.1 mph - N/A   Overcast
9:15 AM 57.2 °F - 53.6 °F 88% 29.96 in 10.0 mi NNE 10.4 mph - N/A   Overcast
9:35 AM 59.0 °F - 53.6 °F 82% 29.97 in 10.0 mi NNE 10.4 mph - N/A   Overcast
9:55 AM 59.0 °F - 51.8 °F 77% 29.96 in 10.0 mi NE 8.1 mph - N/A   Mostly Cloudy
10:15 AM 59.0 °F - 51.8 °F 77% 29.97 in 10.0 mi NNE 6.9 mph - N/A   Scattered Clouds
10:35 AM 59.0 °F - 53.6 °F 82% 29.98 in 10.0 mi NE 6.9 mph - N/A   Mostly Cloudy
10:55 AM 59.0 °F - 51.8 °F 77% 29.98 in 10.0 mi NE 6.9 mph - N/A   Overcast
11:15 AM 60.8 °F - 51.8 °F 72% 29.99 in 10.0 mi NE 9.2 mph - N/A   Overcast
11:35 AM 60.8 °F - 51.8 °F 72% 29.99 in 10.0 mi NE 8.1 mph - N/A   Mostly Cloudy
11:55 AM 62.6 °F - 53.6 °F 72% 29.98 in 10.0 mi ENE 5.8 mph - N/A   Mostly Cloudy
12:16 PM 62.6 °F - 48.2 °F 59% 29.98 in 10.0 mi NNE 4.6 mph - N/A   Scattered Clouds
12:35 PM 64.4 °F - 48.2 °F 56% 29.98 in 10.0 mi North 8.1 mph - N/A   Scattered Clouds
12:55 PM 64.4 °F - 46.4 °F 52% 29.98 in 10.0 mi North 9.2 mph - N/A   Mostly Cloudy
1:15 PM 64.4 °F - 46.4 °F 52% 29.97 in 10.0 mi NNE 3.5 mph - N/A   Scattered Clouds
1:35 PM 64.4 °F - 46.4 °F 52% 29.97 in 10.0 mi North 8.1 mph - N/A   Mostly Cloudy
1:55 PM 64.4 °F - 46.4 °F 52% 29.98 in 10.0 mi NNE 5.8 mph - N/A   Overcast
2:15 PM 64.4 °F - 44.6 °F 49% 29.97 in 10.0 mi Calm Calm - N/A   Mostly Cloudy
2:35 PM 64.4 °F - 50.0 °F 59% 29.97 in 10.0 mi SSE 4.6 mph - N/A   Scattered Clouds
2:55 PM 64.4 °F - 48.2 °F 56% 29.97 in 10.0 mi SSE 5.8 mph - N/A   Mostly Cloudy
3:15 PM 62.6 °F - 48.2 °F 59% 29.98 in 10.0 mi SE 3.5 mph - N/A   Overcast
3:35 PM 64.4 °F - 50.0 °F 59% 29.99 in 10.0 mi South 6.9 mph - N/A   Overcast
3:55 PM 64.4 °F - 48.2 °F 56% 29.99 in 10.0 mi SSE 4.6 mph - N/A   Overcast
4:15 PM 64.4 °F - 48.2 °F 56% 29.99 in 10.0 mi SSW 4.6 mph - N/A   Overcast
4:35 PM 64.4 °F - 50.0 °F 59% 30.00 in 10.0 mi East 9.2 mph - N/A   Overcast
4:55 PM 66.2 °F - 50.0 °F 56% 30.00 in 10.0 mi East 12.7 mph - N/A   Overcast
5:15 PM 64.4 °F - 48.2 °F 56% 30.01 in 10.0 mi SSE 3.5 mph - N/A   Overcast
5:35 PM 64.4 °F - 48.2 °F 56% 30.01 in 10.0 mi NW 6.9 mph - N/A   Overcast
5:55 PM 64.4 °F - 37.4 °F 37% 30.02 in 10.0 mi WNW 8.1 mph - N/A   Mostly Cloudy
6:15 PM 62.6 °F - 37.4 °F 39% 30.03 in 10.0 mi WNW 5.8 mph - N/A   Partly Cloudy
6:55 PM 60.8 °F - 37.4 °F 42% 30.04 in 10.0 mi WNW 3.5 mph - N/A   Clear
7:15 PM 60.8 °F - 37.4 °F 42% 30.05 in 10.0 mi NW 3.5 mph - N/A   Partly Cloudy
7:35 PM 51.8 °F - 42.8 °F 71% 30.06 in 10.0 mi NNW 3.5 mph - N/A   Partly Cloudy
7:55 PM 50.0 °F - 42.8 °F 76% 30.07 in 10.0 mi Calm Calm - N/A   Clear
8:15 PM 48.2 °F - 42.8 °F 82% 30.08 in 10.0 mi WNW 3.5 mph - N/A   Clear
8:35 PM 48.2 °F - 42.8 °F 82% 30.08 in 10.0 mi Calm Calm - N/A   Clear
8:55 PM 46.4 °F 45.2 °F 42.8 °F 87% 30.09 in 10.0 mi West 3.5 mph - N/A   Clear
9:15 PM 44.6 °F - 39.2 °F 81% 30.10 in 10.0 mi Calm Calm - N/A   Clear
9:35 PM 44.6 °F - 39.2 °F 81% 30.11 in 10.0 mi Calm Calm - N/A   Clear
9:55 PM 42.8 °F - 39.2 °F 87% 30.12 in 10.0 mi Calm Calm - N/A   Clear
10:15 PM 42.8 °F - 37.4 °F 81% 30.13 in 10.0 mi Calm Calm - N/A   Clear
10:35 PM 42.8 °F - 37.4 °F 81% 30.13 in 10.0 mi Calm Calm - N/A   Clear
10:55 PM 46.4 °F 44.3 °F 37.4 °F 71% 30.13 in 10.0 mi NW 4.6 mph - N/A   Clear
11:15 PM 51.8 °F - 39.2 °F 62% 30.14 in 10.0 mi NNW 6.9 mph - N/A   Clear
11:35 PM 51.8 °F - 37.4 °F 58% 30.14 in 10.0 mi NNW 4.6 mph - N/A   Clear
11:55 PM 44.6 °F 42.2 °F 37.4 °F 76% 30.15 in 10.0 mi WNW 4.6 mph - N/A   Clear